STARLINK-32305, 61523

Orbit data source: Space-Track

STARLINK-32305, 61523 is a payload satellite owned by SpaceX/Seattle (US) in LEO that was launched on Tue, 15 Oct 2024 UTC via an FALCON 9 launch vehicle from the Air Force Eastern Test Range (AFETR). Payload-class satellites include a variety of spacecraft equipped with specific instruments for various scientific and technological missions. These include communications satellites like Starlink; space stations such as the ISS; scientific satellites like the Hubble; Earth observation satellites from companies like Planet Labs, Umbra, and HawkEye 360; GPS; miniature CubeSats for education and research; and military/defense satellites.

Loading next visibility...
Identifier
61523, 2024-183Q
Orbit
LEO
Country
Flag of USUS
Related business
Manufacturer
SpaceX/Seattle
Mission
Operational Commercial Communications
Bus & Motor
STARLINK V2M, Unknown motor
Mass
730 kg wet, ~700 kg dry
Launch date (UTC)
2024-10-15 (1 year ago)
Launch vehicle
FALCON 9
Launch site
Air Force Eastern Test Range (AFETR)
Object type
Payload
Rocket body
Debris
Shape & HBR
Box + 2 Pan, 17.7 m
Radar Cross Section
33.884 m², Large (>1 m²)

Expand to show TLE details & history
Last TLE update: 15 hours ago

TLE from 15 hours ago
0 STARLINK-32305
1 61523U 24183Q   25346.83708529 -.00000057  00000-0  10221-4 0  9990
2 61523  53.1590 185.9545 0001530  92.6477 267.4699 15.30185229 66352
Epoch: 2025-12-12T20:05Z
TLE epoch observation values (Epoch: 2025-12-12T20:05:24.169Z)
Latitude
0.00001°
Longitude
162.83082°
Altitude
476.205 km
Speed
7.629 km/s
True Right ascension
12h 23m 49s
True Declination
0° 00' 00"
Sunlit
Object was in daylight at epoch
Visualization orbit readout
Latitude
Unknown
Longitude
Unknown
Altitude
Unknown
Speed
Unknown
Apparent Right ascension
Unknown
Apparent Declination
Unknown
Sunlit
N/A
Visualization observer readout
Local Sidereal Time
09:18:50
Azimuth
Unknown
Elevation
Unknown
Doppler factor
Unknown
Orbital elements
Apogee altitude
476.564 km
Perigee altitude
474.467 km
Semi-major axis
6,853.653 km
Eccentricity
0.00015
Inclination
53.159°
RAAN
185.9545°
Arg. of periapsis
92.6477°
True anomaly
267.45238°
Mean anomaly
267.4699°
Eccentric anomaly
267.46114°
Mean motion
3.82525 °/min
Orbital period
94.11 mins
BSTAR
0.000010221
Loading maneuver chart data...
Computing Atmospheric mass density...
Loading historical data...
Loading historical data...
Loading historical data...
Loading historical data...
Loading historical data...
Loading historical data...
Loading historical data...

Documentation

Showing up to 5 results
|